Meteo Giornale » Osservazioni meteo Italia » Grazzanise

ore: 23:55 - Osservazioni Meteo Grazzanise
Lat. 41° 3' N Lon. 14° 4' E Alt. 9 metri s.l.m.

nuvoloso Europe/Rome

13 °C

Nuvoloso

Temp. 24 Ore

13 °C

22 °C

Nord

5.5 Km/h

Dew point 13 °C

Umidità 100 %

Visibilità  7 Km

Il sole sorge alle ore 06:10

Il sole tramonta alle ore 19:53

Data e Ora Cielo e Fenomeni T °C DP °C Um. % Pres. hPa Vis. km Vento km/h
Ieri h: 23:55 nuvoloso Nuvoloso 13 13 100 1013 7 N 5.5
Ieri h: 22:55 nuvoloso Nuvoloso 14 13 93 1013 8 N 9.3
Ieri h: 20:55 nuvoloso Nuvoloso 16 15 93 1011 8 N 3.7
Ieri h: 19:55 nuvoloso Nuvoloso 17 15 88 1010 8 N 0
Ieri h: 18:55 nuvoloso Nuvoloso 19 16 82 1009 8 O 7.4
Ieri h: 17:55 poco_nuvoloso Poco Nuvoloso 20 16 77 1009 8 SO 11.1
Ieri h: 16:55 poco_nuvoloso Poco Nuvoloso 21 16 73 1008 8 O/SO 14.8
Ieri h: 14:55 nuvoloso Nuvoloso 21 17 77 1008 7 O/SO 18.5
Ieri h: 13:55 nuvoloso Nuvoloso 22 17 73 1008 7 SO 18.5
Ieri h: 12:55 nuvoloso Nuvoloso 21 17 77 1007 7 S 16.7
Ieri h: 11:55 molto_nuvoloso Molto Nuvoloso 19 16 82 1007 7 S 18.5
Ieri h: 10:55 molto_nuvoloso Molto Nuvoloso 18 15 82 1006 7 S 18.5
Ieri h: 09:55 molto_nuvoloso Molto Nuvoloso 18 15 82 1006 7 S/SE 14.8
Ieri h: 08:55 coperto_pioggia Pioggia Debole 17 14 82 1006 6 S/SE 20.3
Ieri h: 07:55 molto_nuvoloso Molto Nuvoloso 17 13 77 1005 7 S/SE 18.5
Ieri h: 06:55 molto_nuvoloso Molto Nuvoloso 17 13 77 1005 7 E/SE 14.8
Ieri h: 05:55 nuvoloso Nuvoloso 16 12 77 1005 10 SE 14.8
Ieri h: 04:55 nuvoloso Nuvoloso 15 13 87 1005 10 E/NE 7.4
Ieri h: 03:55 nuvoloso Nuvoloso 15 12 82 1005 10 E 9.3
Ieri h: 02:55 nuvoloso Nuvoloso 14 12 87 1006 10 SE 9.3
Ieri h: 01:55 molto_nuvoloso Molto Nuvoloso 14 12 87 1006 10 E/SE 7.4
Ieri h: 00:55 molto_nuvoloso Molto Nuvoloso 14 13 93 1006 10 N/NO 9.3